Погода в Владимировке

Россия / Ставропольский край     44°44′43″N   44°46′09″E
темп.,
°C
ветер,
м/с
пор.,
м/с
влажн.,
%
обл.,
%
осадки,
мм/ч
давл.,
гПа
погр.,
м
18 января, пн
пн1800:00−1всв6986100 0.1 1006484
03:00−1св5784100 0.1 1006428
06:00−3ссв3491100 0.2 1009266
09:00−3ссз4587100 0.5 1010345
12:00+1зсз4770100 0.0 1012674
15:00+1сз7963100 0.0 1012772
18:00−3сз5973100 0.0 1015660
21:00−3зсз71074100 0.0 1016664
19 января, вт
вт1900:00−4сз4873100 0.0 1017633
03:00−4сз4672100 0.0 1019750
06:00−4сз5975100 0.0 1021720
09:00−3зсз2471100 0.0 1021481
12:00−1юз2363100 0.0 1021694
15:00+1юз125672 0.0 1019838
18:00−2ююв33700 0.0 102134
21:00−3ю23760 0.0 102123
20 января, ср
ср2000:00−4ссв34880 0.0 1022134
03:00−3ссв118138 0.0 102239
06:00−4с247899 0.0 1023162
09:00−3св238299 0.0 1025282
12:00−2всв2284100 0.3 1025320
15:00−2всв1283100 0.5 1025307
18:00−4св3488100 0.4 1027250
21:00−6с4592100 0.9 1029304
21 января, чт
чт2100:00−6с349199 0.2 1030295
03:00−7с228399 0.3 1030253
06:00−7ссз228477 0.0 1031203
09:00−7сз238072 0.0 1033282
12:00−4зсз346552 0.0 1033740
15:00−3зсз345854 0.0 1033895
18:00−5ссз12740 0.0 103422
21:00−5ю11750 0.0 103521
22 января, пт
пт2200:00−5ю23730 0.0 103443
03:00−4ююз23720 0.0 103435
06:00−4юз23720 0.0 103322
09:00−2ююз35610 0.0 1033114
12:00+3ю35510 0.0 1032306
15:00+4ююв23520 0.0 1030288
18:000ююв34680 0.0 103036
21:00−2ююв23670 0.0 103029